OBJECT B (46614 NORAD) Tracking and Keplerian Element Data

This shows tracking and keplerian element data for the satellite.

Feedback or suggestion? Click here.




ElementValue
Catalog46614
NameOBJECT B
Epoch Orbit60
Epoch Day291.93175791
Epoch Year2020
RAAN98.9357
Inclination51.6342
Eccentricity0.0003083
Argument of Perigee72.6657
Mean Anonmoly64.3222
Mean Motion16.44737556
Decay Rate0.094317
L11 46614U 20072B 20291.93175791 .09431700 12546-4 31110-3 0 9993
L22 46614 51.6342 98.9357 0003083 72.6657 64.3222 16.44737556 605

Live tracking and technical data element details for OBJECT B (NORAD 46614). OBJECT B can be tracked NOW for your location showing map with azimuth and elevation plus other details from your city location.

Track the satellite on the map from your city or location and see movement details for azimuth, elevation, latitude, longitude, range, height, and movement on the map or in text.







IsCatalogInMostPopularTable: catalog: 46614, numindb: 2
Update: records affected: 1



GetName: 46614 OBJECT B

Hit Count: updated at: Fri, 30 Oct 2020 01:55:47 GMT